Weather History for GMME - October, 2012

Change the Weather History Date:

Saturday, October 27, 2012

  Actual Average Record
Temperature  
Mean Temperature 66 °F -  
Max Temperature 71 °F 68 °F 95 °F (2001)
Min Temperature 60 °F 51 °F 51 °F (1996)
Growing Degree Days 16 (Base 50)    
Moisture  
Dew Point 62 °F    
Average Humidity 87    
Maximum Humidity 94    
Minimum Humidity 65    
Precipitation  
Precipitation 0.98 in 0.12 in - ()
Sea Level Pressure  
Sea Level Pressure 29.86 in    
Wind  
Wind Speed 7 mph ()    
Max Wind Speed 15 mph    
Max Gust Speed 23 mph    
Visibility 4.3 miles    
Events Rain    
Averages and records for this station are not official NWS values.
T = Trace of Precipitation, MM = Missing Value Source: Averaged Metar Reports

Daily Weather History Graph

Daily Weather History Graph

Search for Another Location

Airport or City:

Trip Planner

Search our weather history database for the weather conditions in past years. The results will help you decide how hot, cold, wet, or windy it might be!

Date:

Astronomy

Oct. 27, 2012 Rise Set
Actual Time 6:42 AM WET 5:38 PM WET
Civil Twilight 6:16 AM WET 6:04 PM WET
Nautical Twilight 5:47 AM WET 6:33 PM WET
Astronomical Twilight 5:18 AM WET 7:02 PM WET
Moon 4:14 PM WET (10/27) 4:28 AM WET (10/27)
Length of Visible Light 11h 47m
Length of Day
10h 56m
Waxing Gibbous, 95% of the Moon is Illuminated
Oct 27
Waxing Gibbous
Oct 29
Full
Nov 7
Last Quarter
Nov 13
New
Nov 20
First Quarter

Hourly Weather History & Observations

Time (WET) Temp. Dew Point Humidity Pressure Visibility Wind Dir Wind Speed Gust Speed Precip Events Conditions
12:00 AM 64 °F 62 °F 93% 29.82 in 3 mi WSW 10.4 mph - - Rain Light Rain
12:00 AM 64.4 °F 62.6 °F 94% 29.80 in 3.1 mi WSW 10.4 mph - N/A   Scattered Clouds
2:00 AM 62.6 °F 60.8 °F 94% 29.80 in 3.1 mi SSW 9.2 mph - N/A   Scattered Clouds
3:00 AM 64 °F 62 °F 89% 29.81 in 3 mi SW 10.4 mph - -  
3:00 AM 64.4 °F 60.8 °F 88% 29.80 in 3.1 mi SW 10.4 mph - N/A   Scattered Clouds
3:30 AM 64.4 °F 62.6 °F 94% 29.80 in 3.7 mi SW 11.5 mph - N/A   Scattered Clouds
4:00 AM 64.4 °F 62.6 °F 94% 29.80 in 3.7 mi SW 15.0 mph - N/A   Scattered Clouds
6:00 AM 62 °F 60 °F 91% 29.83 in 3 mi SW 8.1 mph - - Rain Light Rain
7:00 AM 62.6 °F 59.0 °F 88% 29.83 in 3.1 mi SSW 6.9 mph - N/A   Mostly Cloudy
7:30 AM 62.6 °F 60.8 °F 94% 29.83 in 3.1 mi SSW 5.8 mph - N/A   Mostly Cloudy
8:00 AM 64.4 °F 60.8 °F 88% 29.86 in 3.1 mi SW 9.2 mph - N/A Rain Light Rain Showers
8:30 AM 64.4 °F 62.6 °F 94% 29.86 in 3.1 mi SW 3.5 mph - N/A Rain Light Rain Showers
9:00 AM 64 °F 62 °F 93% 29.87 in 4 mi Calm Calm - - Rain Light Rain Showers
9:00 AM 64.4 °F 62.6 °F 94% 29.86 in 3.7 mi Calm Calm - N/A   Scattered Clouds
9:30 AM 64.4 °F 62.6 °F 94% 29.86 in 3.7 mi West 2.3 mph - N/A   Scattered Clouds
10:00 AM 68.0 °F 64.4 °F 88% 29.86 in 3.7 mi WSW 12.7 mph - N/A   Scattered Clouds
10:30 AM 64.4 °F 62.6 °F 94% 29.86 in 3.7 mi NW 11.5 mph 23.0 mph N/A Rain Light Rain Showers
11:00 AM 66.2 °F 64.4 °F 94% 29.86 in 3.7 mi West 10.4 mph - N/A   Partly Cloudy
11:30 AM 69.8 °F 64.4 °F 83% 29.86 in 3.7 mi WSW 12.7 mph - N/A   Partly Cloudy
12:00 PM 70 °F 64 °F 74% 29.86 in 5 mi WSW 13.8 mph - - Rain Light Rain Showers
12:00 PM 69.8 °F 62.6 °F 78% 29.86 in 5.0 mi WSW 13.8 mph - N/A   Partly Cloudy
12:30 PM 71.6 °F 62.6 °F 73% 29.83 in 5.0 mi West 13.8 mph - N/A   Partly Cloudy
1:00 PM 64.4 °F 60.8 °F 88% 29.86 in 3.1 mi West 10.4 mph - N/A Rain Light Rain Showers
1:30 PM 66.2 °F 64.4 °F 94% 29.83 in 5.0 mi West 6.9 mph - N/A   Partly Cloudy
2:00 PM 69.8 °F 64.4 °F 83% 29.83 in 5.0 mi West 11.5 mph - N/A   Partly Cloudy
2:30 PM 68.0 °F 62.6 °F 83% 29.83 in 5.0 mi WNW 10.4 mph - N/A   Partly Cloudy
3:00 PM 71 °F 62 °F 65% 29.84 in 5 mi West 11.5 mph - - Rain Light Rain Showers
3:00 PM 71.6 °F 62.6 °F 73% 29.83 in 5.0 mi West 11.5 mph - N/A   Partly Cloudy
3:30 PM 71.6 °F 60.8 °F 69% 29.83 in 5.0 mi WNW 9.2 mph - N/A   Partly Cloudy
4:00 PM 69.8 °F 60.8 °F 73% 29.83 in 5.0 mi West 11.5 mph - N/A   Partly Cloudy
4:30 PM 69.8 °F 60.8 °F 73% 29.86 in 5.0 mi WNW 10.4 mph - N/A   Mostly Cloudy
5:00 PM 66.2 °F 60.8 °F 83% 29.86 in 5.0 mi WNW 8.1 mph - N/A   Mostly Cloudy
5:30 PM 66.2 °F 60.8 °F 83% 29.86 in 5.0 mi WNW 4.6 mph - N/A   Mostly Cloudy
6:00 PM 65 °F 61 °F 81% 29.88 in 5 mi Calm Calm - -   Partly Cloudy
6:00 PM 66.2 °F 60.8 °F 83% 29.86 in 5.0 mi Calm Calm - N/A   Mostly Cloudy
6:30 PM 64.4 °F 60.8 °F 88% 29.86 in 5.0 mi Calm Calm - N/A   Mostly Cloudy
7:00 PM 64.4 °F 60.8 °F 88% 29.89 in 5.0 mi Calm Calm - N/A   Mostly Cloudy
7:30 PM 64.4 °F 60.8 °F 88% 29.89 in 5.0 mi Calm Calm - N/A   Mostly Cloudy
8:00 PM 64.4 °F 60.8 °F 88% 29.89 in 5.0 mi Calm Calm - N/A   Mostly Cloudy
8:30 PM 62.6 °F 59.0 °F 88% 29.89 in 5.0 mi Calm Calm - N/A   Scattered Clouds
9:00 PM 61 °F 59 °F 89% 29.91 in 5 mi Calm Calm - -   Mostly Cloudy
9:00 PM 60.8 °F 59.0 °F 94% 29.89 in 5.0 mi Calm Calm - N/A   Scattered Clouds
9:30 PM 62.6 °F 60.8 °F 94% 29.92 in 5.0 mi Calm Calm - N/A   Scattered Clouds
10:00 PM 60.8 °F 59.0 °F 94% 29.92 in 5.0 mi Calm Calm - N/A   Scattered Clouds
10:30 PM 62.6 °F 60.8 °F 94% 29.92 in 5.0 mi South 5.8 mph - N/A   Mostly Cloudy
11:00 PM 62.6 °F 60.8 °F 94% 29.92 in 5.0 mi SSW 4.6 mph - N/A   Mostly Cloudy
11:30 PM 62.6 °F 60.8 °F 94% 29.92 in 5.0 mi Variable 2.3 mph - N/A Rain Light Rain